Shenandoah, IA

3:11 AM CST on February 10, 2016 (GMT -0600)
Shenandoah Municipal

Weather History for KSDA - March, 2012

Change the Weather History Date:

Tuesday, March 6, 2012

  Actual Average Record
Temperature  
Mean Temperature 60 °F -  
Max Temperature 73 °F 46 °F 75 °F (2005)
Min Temperature 48 °F 24 °F -12 °F (1960)
Degree Days  
Heating Degree Days 4    
Growing Degree Days 10 (Base 50)    
Moisture  
Dew Point 33 °F    
Average Humidity 38    
Maximum Humidity 58    
Minimum Humidity 16    
Precipitation  
Precipitation 0.00 in - - ()
Sea Level Pressure  
Sea Level Pressure 29.74 in    
Wind  
Wind Speed 16 mph (SSW)    
Max Wind Speed 29 mph    
Max Gust Speed 36 mph    
Visibility 10 miles    
Events      
Averages and records for this station are not official NWS values.
T = Trace of Precipitation, MM = Missing Value Source: NWS Daily Summary

Daily Weather History Graph

Daily Weather History Graph

Search for Another Location

Airport or City:

Trip Planner

Search our weather history database for the weather conditions in past years. The results will help you decide how hot, cold, wet, or windy it might be!

Date:

Astronomy

Mar. 06, 2012 Rise Set
Actual Time 6:46 AM CST 6:19 PM CST
Civil Twilight 6:19 AM CST 6:46 PM CST
Nautical Twilight 5:47 AM CST 7:18 PM CST
Astronomical Twilight 5:16 AM CST 7:50 PM CST
Moon 4:46 PM CST (3/6) 5:23 AM CST (3/6)
Length of Visible Light 12h 26m
Length of Day
11h 32m
Waxing Gibbous, 96% of the Moon is Illuminated
Mar 6
Waxing Gibbous
Mar 8
Full
Mar 14
Last Quarter
Mar 22
New
Mar 30
First Quarter

Hourly Weather History & Observations

Time (CST) Temp. Dew Point Humidity Pressure Visibility Wind Dir Wind Speed Gust Speed Precip Events Conditions
12:15 AM 48.2 °F 26.6 °F 43% 29.84 in 10.0 mi South 13.8 mph 18.4 mph N/A   Scattered Clouds
12:35 AM 48.2 °F 26.6 °F 43% 29.83 in 10.0 mi South 13.8 mph 21.9 mph N/A   Scattered Clouds
12:55 AM 48.2 °F 28.4 °F 46% 29.83 in 10.0 mi South 11.5 mph - N/A   Scattered Clouds
1:15 AM 48.2 °F 28.4 °F 46% 29.83 in 10.0 mi South 11.5 mph - N/A   Scattered Clouds
1:35 AM 50.0 °F 30.2 °F 47% 29.83 in 10.0 mi South 13.8 mph 20.7 mph N/A   Scattered Clouds
1:55 AM 50.0 °F 30.2 °F 47% 29.81 in 10.0 mi South 16.1 mph 19.6 mph N/A   Clear
2:15 AM 51.8 °F 30.2 °F 44% 29.81 in 10.0 mi South 16.1 mph - N/A   Clear
2:35 AM 51.8 °F 30.2 °F 44% 29.79 in 10.0 mi South 15.0 mph - N/A   Scattered Clouds
2:55 AM 51.8 °F 30.2 °F 44% 29.78 in 10.0 mi South 16.1 mph - N/A   Scattered Clouds
3:15 AM 51.8 °F 30.2 °F 44% 29.77 in 10.0 mi South 18.4 mph 23.0 mph N/A   Scattered Clouds
3:35 AM 50.0 °F 32.0 °F 50% 29.77 in 10.0 mi South 15.0 mph 20.7 mph N/A   Scattered Clouds
3:55 AM 50.0 °F 32.0 °F 50% 29.77 in 10.0 mi South 12.7 mph - N/A   Clear
4:15 AM 50.0 °F 32.0 °F 50% 29.78 in 10.0 mi SSW 10.4 mph - N/A   Clear
4:35 AM 51.8 °F 32.0 °F 47% 29.77 in 10.0 mi South 11.5 mph - N/A   Scattered Clouds
4:55 AM 51.8 °F 30.2 °F 44% 29.77 in 10.0 mi SSW 11.5 mph - N/A   Clear
5:15 AM 51.8 °F 30.2 °F 44% 29.77 in 10.0 mi South 13.8 mph - N/A   Scattered Clouds
5:35 AM 51.8 °F 30.2 °F 44% 29.77 in 10.0 mi SSW 11.5 mph - N/A   Scattered Clouds
5:55 AM 51.8 °F 30.2 °F 44% 29.77 in 10.0 mi SSW 11.5 mph - N/A   Scattered Clouds
6:35 AM 51.8 °F 30.2 °F 44% 29.77 in 10.0 mi South 12.7 mph - N/A   Scattered Clouds
6:55 AM 50.0 °F 32.0 °F 50% 29.77 in 10.0 mi South 10.4 mph - N/A   Scattered Clouds
7:15 AM 48.2 °F 32.0 °F 54% 29.77 in 10.0 mi South 8.1 mph - N/A   Clear
7:35 AM 48.2 °F 33.8 °F 58% 29.77 in 10.0 mi SSE 3.5 mph - N/A   Clear
7:55 AM 51.8 °F 33.8 °F 50% 29.77 in 10.0 mi South 9.2 mph - N/A   Clear
8:15 AM 53.6 °F 33.8 °F 47% 29.77 in 10.0 mi South 12.7 mph - N/A   Clear
8:35 AM 57.2 °F 33.8 °F 41% 29.77 in 10.0 mi South 15.0 mph - N/A   Clear
8:55 AM 59.0 °F 33.8 °F 39% 29.77 in 10.0 mi SSW 20.7 mph 26.5 mph N/A   Clear
9:15 AM 60.8 °F 33.8 °F 36% 29.76 in 10.0 mi SSW 25.3 mph 29.9 mph N/A   Clear
9:35 AM 62.6 °F 35.6 °F 37% 29.76 in 10.0 mi SSW 25.3 mph 34.5 mph N/A   Clear
9:55 AM 64.4 °F 33.8 °F 32% 29.76 in 10.0 mi SSW 24.2 mph 34.5 mph N/A   Clear
10:15 AM 64.4 °F 33.8 °F 32% 29.76 in 10.0 mi SW 25.3 mph 32.2 mph N/A   Clear
10:35 AM 64.4 °F 33.8 °F 32% 29.76 in 10.0 mi SSW 25.3 mph 34.5 mph N/A   Clear
10:55 AM 66.2 °F 33.8 °F 30% 29.75 in 10.0 mi SSW 26.5 mph 31.1 mph N/A   Clear
11:15 AM 66.2 °F 32.0 °F 28% 29.75 in 10.0 mi SSW 25.3 mph 31.1 mph N/A   Clear
11:35 AM 66.2 °F 33.8 °F 30% 29.75 in 10.0 mi SSW 23.0 mph 29.9 mph N/A   Clear
11:55 AM 66.2 °F 32.0 °F 28% 29.74 in 10.0 mi SSW 23.0 mph - N/A   Clear
12:15 PM 68.0 °F 30.2 °F 24% 29.74 in 10.0 mi SSW 21.9 mph 27.6 mph N/A   Clear
12:35 PM 69.8 °F 30.2 °F 23% 29.73 in 10.0 mi SSW 19.6 mph 28.8 mph N/A   Clear
12:55 PM 69.8 °F 28.4 °F 21% 29.72 in 10.0 mi SSW 20.7 mph 31.1 mph N/A   Clear
1:35 PM 69.8 °F 26.6 °F 20% 29.69 in 10.0 mi SSW 23.0 mph 28.8 mph N/A   Clear
1:55 PM 71.6 °F 26.6 °F 19% 29.69 in 10.0 mi SSW 18.4 mph 27.6 mph N/A   Clear
2:15 PM 69.8 °F 26.6 °F 20% 29.68 in 10.0 mi SSW 28.8 mph 33.4 mph N/A   Clear
2:35 PM 69.8 °F 24.8 °F 18% 29.67 in 10.0 mi SW 24.2 mph 32.2 mph N/A   Clear
2:55 PM 73.4 °F 24.8 °F 16% 29.67 in 10.0 mi South 25.3 mph 33.4 mph N/A   Clear
3:15 PM 71.6 °F 26.6 °F 19% 29.67 in 10.0 mi SSW 24.2 mph 33.4 mph N/A   Clear
3:35 PM 71.6 °F 28.4 °F 20% 29.67 in 10.0 mi SSW 21.9 mph 25.3 mph N/A   Clear
4:15 PM 71.6 °F 32.0 °F 23% 29.66 in 10.0 mi South 23.0 mph - N/A   Clear
4:35 PM 71.6 °F 32.0 °F 23% 29.66 in 10.0 mi SSW 28.8 mph 35.7 mph N/A   Clear
4:55 PM 71.6 °F 35.6 °F 27% 29.66 in 10.0 mi SSW 23.0 mph 31.1 mph N/A   Clear
5:15 PM 71.6 °F 37.4 °F 29% 29.66 in 10.0 mi South 20.7 mph 28.8 mph N/A   Clear
5:35 PM 69.8 °F 39.2 °F 33% 29.66 in 10.0 mi SSW 17.3 mph - N/A   Clear
5:55 PM 68.0 °F 42.8 °F 40% 29.67 in 10.0 mi SSW 20.7 mph 28.8 mph N/A   Clear
6:55 PM 64.4 °F 46.4 °F 52% 29.69 in 10.0 mi South 18.4 mph 25.3 mph N/A   Clear
7:35 PM 64.4 °F 46.4 °F 52% 29.70 in 10.0 mi South 19.6 mph 27.6 mph N/A   Clear
8:15 PM 62.6 °F 44.6 °F 52% 29.70 in 10.0 mi South 15.0 mph - N/A   Clear
8:35 PM 62.6 °F 46.4 °F 55% 29.71 in 10.0 mi South 20.7 mph - N/A   Scattered Clouds
9:15 PM 62.6 °F 46.4 °F 55% 29.71 in 10.0 mi South 20.7 mph 34.5 mph N/A   Mostly Cloudy
9:35 PM 62.6 °F 46.4 °F 55% 29.71 in 10.0 mi South 20.7 mph 27.6 mph N/A   Overcast
9:55 PM 62.6 °F 46.4 °F 55% 29.71 in 10.0 mi South 19.6 mph 29.9 mph N/A   Scattered Clouds
10:15 PM 60.8 °F 46.4 °F 59% 29.71 in 10.0 mi South 18.4 mph 26.5 mph N/A   Clear
10:55 PM 60.8 °F 46.4 °F 59% 29.70 in 10.0 mi South 19.6 mph 24.2 mph N/A   Scattered Clouds
11:15 PM 60.8 °F 46.4 °F 59% 29.70 in 10.0 mi South 21.9 mph 27.6 mph N/A   Clear
11:35 PM 60.8 °F 46.4 °F 59% 29.70 in 10.0 mi South 20.7 mph 27.6 mph N/A   Clear
11:55 PM 60.8 °F 46.4 °F 59% 29.69 in 10.0 mi South 17.3 mph 25.3 mph N/A   Clear